LEMUR-2-BRIANDAVIE (43047 NORAD) Tracking and Keplerian Element Data

This shows tracking and keplerian element data for the satellite.

Feedback or suggestion? Click here.




ElementValue
Catalog43047
NameLEMUR-2-BRIANDAVIE
Epoch Orbit23666
Epoch Day41.99650516
Epoch Year2022
RAAN266.0012
Inclination51.5905
Eccentricity0.0007521
Argument of Perigee241.6527
Mean Anonmoly118.3743
Mean Motion16.44792137
Decay Rate0.15917996
L11 43047U 17071L 22041.99650516 .15917996 12472-4 46283-3 0 9997
L22 43047 51.5905 266.0012 0007521 241.6527 118.3743 16.44792137236668



Live tracking and technical data element details for LEMUR-2-BRIANDAVIE (NORAD 43047). LEMUR-2-BRIANDAVIE can be tracked NOW for your location showing map with azimuth and elevation plus other details from your city location.







IsCatalogInMostPopularTable: catalog: 43047, numindb: 550
Update: records affected: 1



GetName: 43047 LEMUR-2-BRIANDAVIE

Hit Count: updated at: Thu, 15 May 2025 20:06:19 GMT